Antonello — IKVS — position and weather

sailwx.info

Track history (hours):
 
Tides and Currents Weather Stations Pressure Air Temp Water Temp Dewpoint Dewpoint Depression Visibility Wind Speed Wind Dir Waves Ship Positions

Antonello

Last reported at 2014-Sep-23 08:21 UTC. Time now 2014-Oct-01 00:08 UTC.
Position N 40°50' E 014°16'.

Length 70 m; draft 2.5 m.

Type: Ship. MMSI: 247422000.

Date/timePositionNaut miles runAvg speedWind from/ knotsBaromVisibWave heightAir tempDewpointWater temp
2014-Sep-23 08:21N 40°50' E 014°16'2 2.0
2014-Sep-23 07:33N 40°49' E 014°18'9 8.8
2014-Sep-23 06:33N 40°40' E 014°17'  
2014-Sep-17 08:33N 36°42' E 014°32'8 8.5
2014-Sep-17 07:33N 36°46' E 014°23'8 8.5
2014-Sep-17 06:33N 36°51' E 014°14'8 8.4
2014-Sep-17 05:33N 36°54' E 014°04'8 8.1
2014-Sep-17 04:34N 36°58' E 013°56'8 8.3
2014-Sep-17 03:34N 37°02' E 013°46'86 2.3
2014-Sep-15 14:31N 38°15' E 012°49'9 9.0
2014-Sep-15 13:33N 38°16' E 013°00'9 8.9
2014-Sep-15 12:33N 38°16' E 013°12'9 8.8
2014-Sep-15 11:33N 38°15' E 013°23'8 7.6
2014-Sep-15 10:33N 38°08' E 013°24'2 1.5
2014-Sep-15 09:33N 38°08' E 013°22'0 0.0
2014-Sep-15 08:32N 38°08' E 013°22'0 0.0
2014-Sep-15 07:29N 38°08' E 013°22'0 0.0
2014-Sep-15 06:31N 38°08' E 013°22'0 0.0
2014-Sep-15 05:33N 38°08' E 013°22'0 0.0
2014-Sep-15 04:33N 38°08' E 013°22'0 0.0
2014-Sep-15 03:33N 38°08' E 013°22'0 0.0
2014-Sep-15 02:33N 38°08' E 013°22'0 0.0
2014-Sep-15 01:33N 38°08' E 013°22'0 0.0
2014-Sep-15 00:33N 38°08' E 013°22'0 0.0
2014-Sep-14 23:33N 38°08' E 013°22'0 0.0
2014-Sep-14 22:33N 38°08' E 013°22'0 0.0
2014-Sep-14 21:33N 38°08' E 013°22'3 3.5
2014-Sep-14 20:33N 38°11' E 013°24'8 7.5
2014-Sep-14 19:33N 38°16' E 013°18'9 9.2
2014-Sep-14 18:33N 38°16' E 013°06'10 9.1
2014-Sep-14 17:28N 38°15' E 012°54'6 0.2
2014-Sep-13 15:28N 38°15' E 012°47'8 8.2
2014-Sep-13 14:33N 38°16' E 012°56'8 8.2
2014-Sep-13 13:33N 38°16' E 013°07'8 8.0
2014-Sep-13 12:34N 38°16' E 013°17'7 7.4
2014-Sep-13 11:34N 38°12' E 013°24'5 4.6
2014-Sep-13 10:34N 38°08' E 013°22'0 0.1
2014-Sep-13 09:34N 38°08' E 013°22'0 0.0
2014-Sep-13 08:34N 38°08' E 013°22'  
Track history (hours):
 
Tides and Currents Weather Stations Pressure Air Temp Water Temp Dewpoint Dewpoint Depression Visibility Wind Speed Wind Dir Waves Ship Positions

Antonello

Last reported at 2014-Sep-23 08:21 UTC. Time now 2014-Oct-01 00:08 UTC.
Position N 40°50' E 014°16'.

Length 70 m; draft 2.5 m.

Type: Ship. MMSI: 247422000.

Date/timePositionNaut miles runAvg speedWind from/ knotsBaromVisibWave heightAir tempDewpointWater temp
2014-Sep-23 08:21N 40°50' E 014°16'2 2.0
2014-Sep-23 07:33N 40°49' E 014°18'9 8.8
2014-Sep-23 06:33N 40°40' E 014°17'  
2014-Sep-17 08:33N 36°42' E 014°32'8 8.5
2014-Sep-17 07:33N 36°46' E 014°23'8 8.5
2014-Sep-17 06:33N 36°51' E 014°14'8 8.4
2014-Sep-17 05:33N 36°54' E 014°04'8 8.1
2014-Sep-17 04:34N 36°58' E 013°56'8 8.3
2014-Sep-17 03:34N 37°02' E 013°46'86 2.3
2014-Sep-15 14:31N 38°15' E 012°49'9 9.0
2014-Sep-15 13:33N 38°16' E 013°00'9 8.9
2014-Sep-15 12:33N 38°16' E 013°12'9 8.8
2014-Sep-15 11:33N 38°15' E 013°23'8 7.6
2014-Sep-15 10:33N 38°08' E 013°24'2 1.5
2014-Sep-15 09:33N 38°08' E 013°22'0 0.0
2014-Sep-15 08:32N 38°08' E 013°22'0 0.0
2014-Sep-15 07:29N 38°08' E 013°22'0 0.0
2014-Sep-15 06:31N 38°08' E 013°22'0 0.0
2014-Sep-15 05:33N 38°08' E 013°22'0 0.0
2014-Sep-15 04:33N 38°08' E 013°22'0 0.0
2014-Sep-15 03:33N 38°08' E 013°22'0 0.0
2014-Sep-15 02:33N 38°08' E 013°22'0 0.0
2014-Sep-15 01:33N 38°08' E 013°22'0 0.0
2014-Sep-15 00:33N 38°08' E 013°22'0 0.0
2014-Sep-14 23:33N 38°08' E 013°22'0 0.0
2014-Sep-14 22:33N 38°08' E 013°22'0 0.0
2014-Sep-14 21:33N 38°08' E 013°22'3 3.5
2014-Sep-14 20:33N 38°11' E 013°24'8 7.5
2014-Sep-14 19:33N 38°16' E 013°18'9 9.2
2014-Sep-14 18:33N 38°16' E 013°06'10 9.1
2014-Sep-14 17:28N 38°15' E 012°54'6 0.2
2014-Sep-13 15:28N 38°15' E 012°47'8 8.2
2014-Sep-13 14:33N 38°16' E 012°56'8 8.2
2014-Sep-13 13:33N 38°16' E 013°07'8 8.0
2014-Sep-13 12:34N 38°16' E 013°17'7 7.4
2014-Sep-13 11:34N 38°12' E 013°24'5 4.6
2014-Sep-13 10:34N 38°08' E 013°22'0 0.1
2014-Sep-13 09:34N 38°08' E 013°22'0 0.0
2014-Sep-13 08:34N 38°08' E 013°22'  

Dump ship's entire track history